Find Starlink 35562

NORAD ID: 66063 Int'l Des: 2025-235 Owner: SPXS Country: US Constellation: starlink operational
LEOCIRCULAR

当前视图

正在加载3D地球...

About Starlink 35562

Starlink 35562 (NORAD 66063) is a starlink constellation satellite (v2 mini) launched Oct 19, 2025 by SPXS of US. It operates in LEO, CIRCULAR orbit with a mass of 575.00 kg.

即将过境

Passes for default location (London). Set your location on the main map for personalized predictions.

高度历史

Loading altitude history...

两行轨道根数

1 66063U 25235F 26263.92365898 .00013667 00000-0 41458-3 0 9995
2 66063 53.1628 57.6518 0000900 74.6766 285.4336 15.34424359 52823
Epoch: Sep 20, 2026 • Age: 8 hours

当前状态

高度 468.2 km
远地点 / 近地点 N/A
速度 7.64 km/s
星下点 51.64°N, 69.23°E
发射日期 Oct 19, 2025
运行时间 0.9 years
类型 internet

技术详情

分类 Payload
质量 575.00 kg
干质量 530.00 kg
长度 0.30 m
跨度 29.00 m
形状 ? Box + pan
制造商 SPXS
平台类型 Starlink V2MO
阶段状态 In Orbit
所有者/国家 SPXS/US

Most Searched